Ludington, MI

2:38 PM EST on December 07, 2019 (GMT -0500)
Mason County

Weather History for KLDM - November, 2019

Change the Weather History Date:

Tuesday, November 19, 2019

  Actual Average Record
Temperature  
Mean Temperature 35 °F -  
Max Temperature 37 °F 45 °F 69 °F (1953)
Min Temperature 33 °F 32 °F 17 °F (1959)
Degree Days  
Heating Degree Days 30    
Moisture  
Dew Point 33 °F    
Average Humidity 95    
Maximum Humidity 97    
Minimum Humidity 87    
Precipitation  
Precipitation 0.02 in - - ()
Sea Level Pressure  
Sea Level Pressure 29.82 in    
Wind  
Wind Speed 0 mph ()    
Max Wind Speed 5 mph    
Max Gust Speed -    
Visibility 3.7 miles    
Events Rain    
Averages and records for this station are not official NWS values.
T = Trace of Precipitation, MM = Missing Value Source: Averaged Metar Reports

Daily Weather History Graph

Daily Weather History Graph

Search for Another Location

Airport or City:

Astronomy

Nov. 19, 2019 Rise Set
Actual Time 7:45 AM EST 5:16 PM EST
Civil Twilight 7:13 AM EST 5:47 PM EST
Nautical Twilight 6:38 AM EST 6:22 PM EST
Astronomical Twilight 6:04 AM EST 6:56 PM EST
Moon No Moon Rise 1:54 PM EST (11/19)
Length of Visible Light 10h 33m
Length of Day
9h 30m
Waning Gibbous, 52% of the Moon is Illuminated
Nov 19
Waning Gibbous
Nov 19
Last Quarter
Nov 26
New
Dec 4
First Quarter
Dec 12
Full

Hourly Weather History & Observations

Time (EST) Temp. Windchill Dew Point Humidity Pressure Visibility Wind Dir Wind Speed Gust Speed Precip Events Conditions
12:15 AM 33.3 °F - 32.2 °F 96% 29.74 in 1.8 mi Calm Calm - N/A   Overcast
12:36 AM 33.1 °F - 32.0 °F 96% 29.74 in 2.0 mi Calm Calm - N/A   Overcast
12:55 AM 33.3 °F - 32.2 °F 96% 29.74 in 2.5 mi Calm Calm - N/A   Overcast
1:15 AM 33.3 °F - 32.2 °F 96% 29.74 in 2.5 mi Calm Calm - N/A   Overcast
1:35 AM 33.8 °F - 32.7 °F 96% 29.74 in 3.0 mi Calm Calm - N/A   Overcast
1:36 AM 33.8 °F - 32.7 °F 96% 29.74 in 3.0 mi Calm Calm - N/A   Overcast
1:55 AM 33.6 °F - 32.4 °F 95% 29.74 in 2.5 mi Calm Calm - N/A Rain Light Rain
2:15 AM 33.8 °F - 32.5 °F 95% 29.74 in 2.0 mi Calm Calm - 0.01 in Rain Rain
2:35 AM 33.4 °F - 32.4 °F 96% 29.74 in 2.0 mi Calm Calm - 0.01 in Rain Rain
2:55 AM 33.8 °F - 32.5 °F 95% 29.74 in 3.0 mi Calm Calm - 0.02 in   Light Drizzle
3:15 AM 33.4 °F 30.4 °F 32.4 °F 96% 29.74 in 2.5 mi East 3.5 mph - N/A   Overcast
3:16 AM 33.4 °F 30.4 °F 32.4 °F 96% 29.74 in 3.0 mi East 3.5 mph - N/A   Overcast
3:35 AM 33.4 °F - 32.4 °F 96% 29.74 in 3.0 mi Calm Calm - N/A   Overcast
3:55 AM 33.6 °F - 32.5 °F 96% 29.73 in 3.0 mi Calm Calm - N/A   Overcast
3:56 AM 33.8 °F - 32.5 °F 95% 29.73 in 3.0 mi Calm Calm - N/A   Overcast
4:15 AM 34.0 °F - 32.9 °F 96% 29.73 in 3.0 mi Calm Calm - N/A   Overcast
4:35 AM 34.0 °F - 32.9 °F 96% 29.73 in 4.0 mi Calm Calm - N/A Rain Light Rain
4:55 AM 33.8 °F - 32.5 °F 95% 29.73 in 2.5 mi Calm Calm - N/A   Overcast
5:15 AM 33.8 °F - 32.9 °F 96% 29.73 in 3.0 mi Calm Calm - N/A   Overcast
5:36 AM 33.8 °F - 32.7 °F 96% 29.74 in 2.5 mi Calm Calm - N/A   Drizzle
5:55 AM 33.8 °F - 32.7 °F 96% 29.74 in 2.5 mi Calm Calm - N/A   Overcast
6:15 AM 34.2 °F - 33.1 °F 96% 29.74 in 2.5 mi Calm Calm - N/A   Overcast
6:16 AM 34.2 °F - 33.1 °F 96% 29.74 in 2.5 mi Calm Calm - N/A   Overcast
6:35 AM 33.4 °F - 32.4 °F 96% 29.75 in 2.0 mi Calm Calm - N/A   Overcast
6:55 AM 33.3 °F - 32.2 °F 96% 29.75 in 2.0 mi Calm Calm - N/A   Overcast
7:15 AM 33.4 °F 29.1 °F 32.4 °F 96% 29.75 in 2.0 mi East 4.6 mph - N/A   Overcast
7:35 AM 33.4 °F - 32.4 °F 96% 29.76 in 3.0 mi Calm Calm - N/A   Overcast
7:55 AM 33.4 °F - 32.4 °F 96% 29.76 in 3.0 mi Calm Calm - N/A   Overcast
8:15 AM 33.6 °F - 32.5 °F 96% 29.77 in 2.0 mi Calm Calm - N/A   Overcast
8:16 AM 33.8 °F - 32.5 °F 95% 29.77 in 2.0 mi Calm Calm - N/A   Overcast
8:35 AM 33.8 °F - 32.9 °F 96% 29.77 in 2.0 mi Calm Calm - N/A   Overcast
8:36 AM 33.8 °F - 32.9 °F 96% 29.77 in 2.0 mi Calm Calm - N/A   Overcast
8:55 AM 34.0 °F - 32.9 °F 96% 29.77 in 2.0 mi Calm Calm - N/A   Overcast
9:15 AM 34.0 °F - 32.9 °F 96% 29.78 in 2.5 mi Calm Calm - N/A   Overcast
9:16 AM 34.0 °F - 32.9 °F 96% 29.78 in 2.5 mi Calm Calm - N/A   Overcast
9:35 AM 34.0 °F - 32.9 °F 96% 29.78 in 2.5 mi Calm Calm - N/A   Overcast
9:36 AM 34.0 °F - 32.9 °F 96% 29.78 in 2.5 mi Calm Calm - N/A   Overcast
9:55 AM 34.2 °F - 33.1 °F 96% 29.78 in 2.5 mi Calm Calm - N/A   Overcast
9:56 AM 34.2 °F - 33.1 °F 96% 29.78 in 2.5 mi Calm Calm - N/A   Overcast
10:15 AM 34.3 °F - 33.3 °F 96% 29.79 in 2.0 mi Calm Calm - N/A   Overcast
10:35 AM 34.7 °F - 33.4 °F 95% 29.79 in 2.0 mi Calm Calm - N/A   Overcast
10:36 AM 34.7 °F - 33.4 °F 95% 29.79 in 2.0 mi Calm Calm - N/A   Overcast
10:55 AM 34.7 °F 31.8 °F 33.8 °F 97% 29.79 in 3.0 mi ESE 3.5 mph - N/A   Overcast
11:15 AM 34.7 °F - 33.8 °F 97% 29.80 in 3.0 mi Calm Calm - N/A   Overcast
11:35 AM 34.9 °F - 33.8 °F 96% 29.80 in 3.0 mi Calm Calm - N/A   Overcast
11:55 AM 35.1 °F - 34.0 °F 96% 29.80 in 3.0 mi Calm Calm - N/A   Overcast
12:15 PM 35.2 °F - 34.2 °F 96% 29.80 in 3.0 mi Calm Calm - N/A   Overcast
12:16 PM 35.2 °F - 34.2 °F 96% 29.80 in 3.0 mi Calm Calm - N/A   Overcast
12:36 PM 35.6 °F - 34.3 °F 95% 29.80 in 3.0 mi Calm Calm - N/A   Overcast
12:55 PM 35.6 °F - 34.5 °F 96% 29.80 in 2.5 mi Calm Calm - N/A   Overcast
12:56 PM 35.6 °F - 34.5 °F 96% 29.80 in 2.5 mi Calm Calm - N/A   Overcast
1:15 PM 35.8 °F - 34.7 °F 96% 29.80 in 3.0 mi Calm Calm - N/A   Overcast
1:16 PM 35.8 °F - 34.7 °F 96% 29.80 in 3.0 mi Calm Calm - N/A   Overcast
1:35 PM 36.0 °F - 34.9 °F 96% 29.80 in 3.0 mi Calm Calm - N/A   Overcast
1:36 PM 36.0 °F - 34.9 °F 96% 29.81 in 3.0 mi Calm Calm - N/A   Overcast
1:55 PM 36.1 °F - 35.1 °F 96% 29.81 in 4.0 mi Calm Calm - N/A   Overcast
2:15 PM 36.5 °F - 35.1 °F 95% 29.82 in 4.0 mi Calm Calm - N/A   Overcast
2:35 PM 36.7 °F - 35.6 °F 96% 29.82 in 4.0 mi Calm Calm - N/A   Overcast
2:55 PM 36.7 °F - 35.6 °F 96% 29.83 in 4.0 mi Calm Calm - N/A   Overcast
2:56 PM 36.7 °F - 35.6 °F 96% 29.83 in 4.0 mi Calm Calm - N/A   Overcast
3:15 PM 37.0 °F - 35.6 °F 95% 29.83 in 4.0 mi Calm Calm - N/A   Overcast
3:35 PM 36.9 °F - 35.8 °F 96% 29.84 in 4.0 mi Calm Calm - N/A   Overcast
3:55 PM 37.2 °F - 35.8 °F 95% 29.85 in 4.0 mi Calm Calm - N/A   Overcast
3:56 PM 37.2 °F - 35.6 °F 94% 29.85 in 4.0 mi Calm Calm - N/A   Overcast
4:15 PM 36.9 °F - 34.0 °F 89% 29.86 in 7.0 mi Calm Calm - N/A   Overcast
4:16 PM 36.7 °F - 34.0 °F 90% 29.86 in 7.0 mi Calm Calm - N/A   Overcast
4:35 PM 36.1 °F - 34.2 °F 93% 29.86 in 7.0 mi Calm Calm - N/A   Overcast
4:36 PM 36.1 °F - 34.2 °F 93% 29.86 in 7.0 mi Calm Calm - N/A   Overcast
4:55 PM 35.8 °F - 34.2 °F 94% 29.87 in 7.0 mi Calm Calm - N/A   Overcast
5:15 PM 35.6 °F - 34.3 °F 95% 29.87 in 5.0 mi Calm Calm - N/A   Overcast
5:16 PM 35.6 °F - 34.3 °F 95% 29.88 in 5.0 mi Calm Calm - N/A   Overcast
5:35 PM 35.4 °F - 34.2 °F 95% 29.88 in 7.0 mi Calm Calm - N/A   Overcast
5:55 PM 35.2 °F - 34.0 °F 95% 29.89 in 7.0 mi Calm Calm - N/A   Overcast
6:15 PM 34.9 °F - 34.0 °F 97% 29.89 in 5.0 mi Calm Calm - N/A   Overcast
6:35 PM 34.3 °F - 33.3 °F 96% 29.90 in 4.0 mi Calm Calm - N/A   Overcast
6:55 PM 34.5 °F - 33.3 °F 95% 29.90 in 4.0 mi Calm Calm - N/A   Overcast
7:15 PM 34.3 °F - 33.3 °F 96% 29.91 in 2.5 mi Calm Calm - N/A   Overcast
7:35 PM 34.7 °F - 33.6 °F 96% 29.91 in 4.0 mi Calm Calm - N/A   Overcast
7:55 PM 34.2 °F - 33.1 °F 96% 29.92 in 3.0 mi Calm Calm - N/A   Overcast
8:15 PM 34.2 °F - 33.1 °F 96% 29.92 in 3.0 mi Calm Calm - N/A   Overcast
8:16 PM 34.2 °F - 33.1 °F 96% 29.92 in 4.0 mi Calm Calm - N/A   Overcast
8:35 PM 34.7 °F - 33.6 °F 96% 29.92 in 4.0 mi Calm Calm - N/A   Overcast
8:55 PM 34.5 °F - 33.3 °F 95% 29.93 in 3.0 mi Calm Calm - N/A   Overcast
9:15 PM 34.5 °F - 33.3 °F 95% 29.94 in 4.0 mi Calm Calm - N/A   Overcast
9:35 PM 34.3 °F - 33.3 °F 96% 29.94 in 3.0 mi Calm Calm - N/A   Overcast
9:36 PM 34.3 °F - 33.4 °F 97% 29.95 in 3.0 mi Calm Calm - N/A   Overcast
9:55 PM 35.6 °F - 34.0 °F 94% 29.95 in 7.0 mi Calm Calm - N/A   Overcast
10:15 PM 35.8 °F - 32.7 °F 89% 29.96 in 7.0 mi Calm Calm - N/A   Overcast
10:35 PM 35.8 °F - 32.4 °F 87% 29.95 in 7.0 mi Calm Calm - N/A   Overcast
10:55 PM 35.6 °F - 32.0 °F 87% 29.95 in 7.0 mi Calm Calm - N/A   Overcast
11:15 PM 35.1 °F - 32.4 °F 90% 29.96 in 7.0 mi Calm Calm - N/A   Overcast
11:16 PM 35.2 °F - 32.2 °F 89% 29.96 in 7.0 mi Calm Calm - N/A   Overcast
11:35 PM 35.6 °F 31.7 °F 32.0 °F 87% 29.97 in 7.0 mi West 4.6 mph - N/A   Overcast
11:36 PM 35.4 °F 32.6 °F 32.0 °F 87% 29.97 in 7.0 mi West 3.5 mph - N/A   Overcast
11:55 PM 35.2 °F 32.4 °F 31.8 °F 87% 29.98 in 10.0 mi West 3.5 mph - N/A   Overcast